Ihor Pikhalyonok

Recruteur - Metalist
21 Oct 2027
Jeudi
Processus

Personnalité

Adaptabilité (3) Ambition (13) Controverse (19) Loyauté (14) Pression (1) Professionnalisme (1) Sportivité (13) Tempérament (8)

Profil

Style d'entraînement Démocratique
Diplôme Continental C
Détermination 8
Gestion des joueurs 10
Motivation 8
Discipline 9
Satisfaction professionnelle
82%
Fatigue
0%
Rôle Recruteur
Salaire 69.1K p/s
Contrat 14.03.2028

Performance

Comportement Bon
Efficacité de l'entraînement
29%
Développement des joueurs
30%
Prévention des blessures
45%
Mise en place tactique
55%

Événements récents

A évalué un joueur 7j
A participé à une réunion de recrutement 7j
A évalué un joueur 7j
A évalué un joueur 7j
A évalué un joueur 7j
A évalué un joueur 7j
A évalué un joueur 7j
A évalué un joueur 14j

Suivi en cours

155
Joueur Club Statut Capacité Confiance Observé Dernière observation Dernier vote
Santiago Sala Güemes Actif 118 / 92 40% 2 18.10.2027 -
Victor Mbaoma Tusker Actif 95 / 89 40% 4 18.10.2027 -
Sebastián Cocimano Nueva Chicago Actif 97 / 93 40% 4 17.10.2027 -
Jonathan Cañete Portuguesa Actif 100 / 117 40% 2 17.10.2027 -
Chinedu Onyinjekwu Bayelsa United Actif 82 / 79 40% 2 16.10.2027 -
Santiago Apa All Boys Actif 104 / 127 40% 3 16.10.2027 -
Fernando Mimbacas Juventud Actif 103 / 96 40% 2 15.10.2027 -
Richard Celis Zamora Actif 124 / 122 40% 1 15.10.2027 -
Jorge Obregón Deportivo Pasto Actif 122 / 129 40% 2 14.10.2027 -
Facundo Milán Central Espanol Actif 93 / 111 40% 1 14.10.2027 -
Auwalu Ali Malam Kano Pillars Actif 96 / 110 40% 2 12.10.2027 -
Matías Sosa Arsenal Actif 100 / 124 40% 4 12.10.2027 -
Agustín Gallo Tristán Suárez Actif 111 / 91 40% 2 11.10.2027 -
Kevin Méndez Dinamo Tbilisi Actif 107 / 97 40% 1 11.10.2027 -
Matías Samaniego Talleres Actif 91 / 113 40% 1 10.10.2027 -
Lisandro Cabrera Maipú Actif 121 / 114 40% 3 09.10.2027 -
Ismail Sarki Niger Tornadoes Actif 114 / 105 40% 1 09.10.2027 -
Maren Kefas Plateau United Actif 87 / 94 40% 1 07.10.2027 -
Leandro Suhr Boston River Actif 114 / 103 40% 4 06.10.2027 -
Federico Martínez Liverpool Montevideo Actif 133 / 136 40% 1 06.10.2027 -
Luca Franco Arsenal Actif 105 / 97 40% 2 05.10.2027 -
Francisco Bonfiglio Boston River Actif 123 / 125 40% 1 05.10.2027 -
Abel Argañaraz Gimnasia y Esgrima Actif 92 / 119 40% 1 04.10.2027 -
Maclyn Biokpo Jenewari Rivers United Actif 121 / 93 40% 4 03.10.2027 -
Junior Paredes Trujillanos Actif 118 / 108 40% 1 03.10.2027 -
Chineme Chinonso Ikorodu City Actif 95 / 114 40% 4 02.10.2027 -
Misael Sosa Godoy Cruz Actif 101 / 125 40% 4 01.10.2027 -
Adalberto Peñaranda Deportivo Tachira Actif 104 / 119 40% 1 01.10.2027 -
Juan Rocca Gimnasia y Tiro Actif 109 / 119 40% 4 28.09.2027 -
Lucas Carrizo Plaza Colonia Actif 108 / 119 40% 1 28.09.2027 -
Fabricio Rojas Gimnasia y Tiro Actif 114 / 98 40% 3 27.09.2027 -
Marco Bustillo Zamora Actif 117 / 82 40% 1 26.09.2027 -
Joaquín Zeballos Wanderers Actif 114 / 102 40% 1 26.09.2027 -
Tiziano Dornell Danubio Actif 121 / 128 40% 2 25.09.2027 -
Nicolás Heiz Maipú Actif 91 / 124 40% 3 25.09.2027 -
Luciano Inverso Rentistas Actif 111 / 105 40% 1 22.09.2027 -
Samson Olasupo Remo Stars Actif 92 / 114 40% 1 20.09.2027 -
Alan Bonansea Colón Actif 119 / 108 40% 1 19.09.2027 -
Lucio Castillo Colegiales Actif 122 / 105 40% 1 18.09.2027 -
Samuel Anakwe Remo Stars Actif 83 / 98 40% 1 16.09.2027 -
Adama Traoré Bidco United Actif 108 / 103 40% 1 14.09.2027 -
Juan Mendoza Güemes Actif 115 / 106 40% 1 13.09.2027 -
Shuaibu Ibrahim Wikki Tourists Actif 94 / 81 40% 2 11.09.2027 -
Gustavo Viera Cerro Largo Actif 90 / 117 40% 1 09.09.2027 -
Emiliano Saliadarre Miramar Misiones Actif 125 / 112 40% 1 08.09.2027 -
Javier Martínez Almirante Brown Actif 94 / 118 40% 1 04.09.2027 -
Marco Miori Alvarado Actif 96 / 114 40% 1 03.09.2027 -
Timothy Zechariah Rivers United Actif 107 / 109 40% 2 02.09.2027 -
Agustín Occhiato Katsina United Actif 78 / 80 40% 1 01.09.2027 -
Joseph Atule Barau Actif 102 / 88 40% 1 28.08.2027 -
Oto John ES Mostaganem Actif 103 / 124 40% 2 26.08.2027 -
Andrii Bobynets Prykarpattia Actif 99 / 102 30% 1 / 1m 25.08.2027 -
Augusto Berrondo Tristán Suárez Actif 100 / 88 40% 1 23.08.2027 -
Chukwuemeka Obioma Abia Warriors Actif 82 / 109 40% 1 16.08.2027 -
Bismark Asante Ashanti Gold Actif 103 / 93 40% 1 14.08.2027 -
Enzo Cabrera Danubio Actif 123 / 117 40% 1 12.08.2027 -
Miloš Bočić Altamura Actif 109 / 100 40% 2 10.08.2027 -
Antonio Cioffi Latina Actif 118 / 121 40% 1 10.08.2027 -
Alejo Cruz Juventud Actif 133 / 125 40% 1 06.08.2027 -
Ivo Costantino Rentistas Actif 113 / 115 40% 1 05.08.2027 -
Don Bolsius Ascoli Actif 109 / 85 40% 1 04.08.2027 -
Eljon Toci Dolomiti Bellunesi Actif 101 / 96 40% 1 03.08.2027 -
George Lloyd Shrewsbury Town Actif 97 / 105 40% 1 02.08.2027 -
Samuel Tetteh Ashanti Gold Actif 101 / 96 40% 1 01.08.2027 -
Dean Erasmus Platinum Stars Actif 92 / 106 40% 1 28.07.2027 -
Bautista Tomatis Racing Actif 127 / 122 40% 1 28.07.2027 -
Nicola Dalmonte Trento Actif 93 / 104 40% 1 27.07.2027 -
Danylo Kravchuk LNZ Actif 112 / 114 40% 1 26.07.2027 -
Harry McKirdy Barrow AFC Actif 89 / 100 40% 1 26.07.2027 -
Wendell Livyi Bereh Refusé 81 / 110 58% 1 05.07.2027 Refuser
Mees Rijks Bristol Rovers Actif 125 / 100 40% 5 12.06.2027 -
Job Ochieng Real Sociedad Actif 97 / 122 40% 1 12.06.2027 -
Jaze Kabia Grimsby Town Actif 106 / 106 40% 1 10.06.2027 -
Alassana Jatta Notts County Actif 102 / 110 40% 1 10.06.2027 -
Bojan Radulović Huddersfield Town Actif 116 / 124 40% 4 09.06.2027 -
Kelly Saravanan Salford City Actif 123 / 134 40% 2 09.06.2027 -
Tyreece Campbell Charlton Athletic Actif 105 / 125 40% 4 08.06.2027 -
Harry Leonard Peterborough United Actif 99 / 98 40% 3 07.06.2027 -
Sam Bell Bristol City Refusé 122 / 104 40% 3 07.06.2027 Refuser
Callum Stead Barnet Actif 80 / 112 40% 1 07.06.2027 -
Jayden Wareham Barnet Actif 88 / 96 40% 3 05.06.2027 -
Emanuele Schimmenti Potenza Actif 120 / 114 40% 1 05.06.2027 -
Everton Bala Levski Actif 136 / 139 40% 2 31.05.2027 -
Ihor Krasnopir Polissia Actif 122 / 132 40% 6 30.05.2027 -
Camillo Tavernelli Arezzo Actif 111 / 131 40% 2 30.05.2027 -
Aaron Drinan Swindon Town Actif 104 / 104 40% 3 29.05.2027 -
Niall Ennis Blackpool Actif 106 / 113 40% 3 29.05.2027 -
Dany Mota Monza Actif 126 / 112 40% 3 29.05.2027 -
Kyle Wootton Stockport County Actif 110 / 124 40% 1 29.05.2027 -
Josh Koroma Leyton Orient Actif 97 / 115 40% 3 27.05.2027 -
Shilow Tracey Crawley Town Actif 98 / 107 40% 1 27.05.2027 -
Lorent Tolaj Plymouth Argyle Actif 129 / 123 40% 4 25.05.2027 -
Marcus Browne AFC Wimbledon Actif 100 / 123 40% 4 24.05.2027 -
Robert Mizo Ashanti Gold Actif 119 / 103 40% 2 24.05.2027 -
Simone Mazzocchi Cosenza Actif 119 / 105 40% 1 24.05.2027 -
Fabrizio Cavegn Bristol Rovers Actif 126 / 128 40% 1 21.05.2027 -
Dom Ballard Leyton Orient Actif 118 / 133 40% 1 21.05.2027 -
Giuseppe Di Serio Spezia Actif 112 / 121 40% 1 20.05.2027 -
Bradley Fink Wycombe Wanderers Actif 92 / 115 40% 4 19.05.2027 -
Lewis Morgan SuperSport United Actif 141 / 111 40% 3 16.05.2027 -
Lee Bonis Chesterfield Actif 87 / 92 40% 2 16.05.2027 -
Louis Appéré Cambridge United Actif 100 / 105 40% 2 14.05.2027 -
Aaron Collins Milton Keynes Dons Actif 118 / 135 40% 2 14.05.2027 -
Stephen Humphrys Bradford City Actif 115 / 111 40% 1 14.05.2027 -
Shayne Lavery Cambridge United Actif 92 / 124 40% 2 11.05.2027 -
Christian Saydee Wigan Athletic Actif 112 / 106 40% 1 09.05.2027 -
Moussa Dembélé CR Belouizdad Actif 149 / 147 40% 1 09.05.2027 -
Bernat Guiu Virtus Entella Actif 110 / 114 40% 1 06.05.2027 -
Lamine Guèye Barrow AFC Actif 128 / 130 40% 1 06.05.2027 -
Marco Tumminello Benevento Actif 125 / 90 40% 1 03.05.2027 -
John Yeboah Venezia Actif 106 / 109 40% 2 02.05.2027 -
Silvio Merkaj Vicenza Actif 121 / 126 40% 2 01.05.2027 -
Malik Mothersille Stockport County Actif 98 / 94 40% 3 01.05.2027 -
Danyil Alefirenko Chornomorets Actif 120 / 92 40% 3 23.04.2027 -
Evidence Makgopa Orlando Pirates Refusé 113 / 100 40% 1 22.04.2027 Plus d'infos
Papa Ndiaga Yade Oleksandriya Actif 115 / 98 40% 1 21.04.2027 -
Yurii Klymchuk Kolos Actif 116 / 108 40% 2 20.04.2027 -
Will Evans Mansfield Town Actif 95 / 98 40% 1 14.04.2027 -
Maksym Kulish Probiy Actif 70 / 87 58% 1 08.02.2027 -
Yurii Mykhayliv Nyva Actif 68 / 95 58% 1 25.01.2027 -
Tedi Cara LNZ Actif 114 / 127 40% 2 24.01.2027 -
Patrick Maswanganyi Orlando Pirates Actif 110 / 136 40% 1 09.01.2027 -
Siyanda Ndlovu Bloemfontein Celtic Actif 116 / 107 40% 1 25.12.2026 -
Serhiy Buletsa Oleksandriya Actif 113 / 114 40% 1 23.12.2026 -
Kermit Billiat Ajax Cape Town Actif 116 / 124 40% 1 23.12.2026 -
Velemseni Ndwandwe Golden Arrows Actif 102 / 120 40% 2 20.12.2026 -
Bohdan Boichuk Khazar Actif 102 / 125 40% 1 20.12.2026 -
Ante Roguljić Diosgyor Actif 123 / 132 40% 1 11.12.2026 -
Maksym Tretiakov Obolon Actif 100 / 104 40% 1 11.12.2026 -
Maksym Luniov Chornomorets Actif 100 / 98 40% 1 10.12.2026 -
Xeber Alkain Karpaty Actif 121 / 113 40% 1 07.12.2026 -
Bongani Modiba Black Aces Actif 131 / 117 40% 2 21.11.2026 -
Marcelo Allende Mamelodi Sundowns Actif 115 / 143 40% 2 14.11.2026 -
Tshepang Moremi Orlando Pirates Actif 115 / 104 40% 2 14.11.2026 -
Nduduzo Sibiya Golden Arrows Actif 107 / 121 40% 1 05.11.2026 -
Fredrik Bjørkan Bodo/Glimt Actif 129 / 133 40% 1 04.11.2026 -
Ammar Ramadan DAC Dunajska Streda Actif 129 / 132 40% 1 02.11.2026 -
Muharrem Jashari LNZ Actif 122 / 109 40% 1 02.11.2026 -
Oleksandr Drambaiev LNZ Actif 109 / 127 40% 2 01.11.2026 -
Jordan Lotomba Bloemfontein Celtic Actif 123 / 110 40% 1 30.10.2026 -
Dmytro Kryskiv Shakhtar Actif 133 / 139 40% 1 24.10.2026 -
Artem Slesar Zorya Actif 106 / 125 40% 1 20.10.2026 -
Oleksii Hutsuliak Polissia Actif 137 / 111 40% 1 18.10.2026 -
Ivan Kaliuzhnyi Metalist Actif 110 / 114 40% 1 15.10.2026 -
Fawaaz Basadien Mamelodi Sundowns Actif 125 / 135 40% 1 13.10.2026 -
Iván Calero Karpaty Actif 124 / 134 40% 1 12.10.2026 -
Ola Brynhildsen Bodo/Glimt Actif 126 / 106 40% 1 10.10.2026 -
Ole-Didrik Blomberg Bodo/Glimt Actif 128 / 122 40% 1 08.10.2026 -
Conrad Wallem Austria Wien Actif 135 / 144 40% 1 08.10.2026 -
Andrii Novikov Chernihiv Actif 85 / 85 30% 1 / 1m 26.08.2026 -
Oleksandr Kalinin Nyva Actif 85 / 88 52% 1 / 1m 26.08.2026 -
Dmytro Makotiak Prykarpattia Actif 64 / 69 42% 1 / 1m 26.08.2026 -
Richie Laryea Toronto FC Actif 125 / 103 40% 1 03.08.2026 -
Romain Del Castillo Osasuna Actif 137 / 116 40% 1 01.08.2026 -
Ozziel Herrera Tigres Actif 130 / 139 40% 1 01.08.2026 -